FW3849 Weather Reports


time (UTC)temp
C
wind
direction
speed
KPH
gust
KPH
rain 1hr
cm
rain 24hr
cm
rain mn
cm
humidity
%
barometer
mb
20260906200507 34 149 9.7 22.5 0.00 0.00 0.00 26 1010.3
20260906200007 34 127 11.3 24.1 0.00 0.00 0.00 26 1010.3
20260906195507 35 164 14.5 24.1 0.00 0.00 0.00 26 1010.3
20260906195006 35 178 14.5 22.5 0.00 0.00 0.00 26 1010.4
20260906194506 34 162 14.5 35.4 0.00 0.00 0.00 26 1010.4
20260906193504 34 183 11.3 24.1 0.00 0.00 0.00 26 1010.6
20260906193006 34 131 11.3 27.4 0.00 0.00 0.00 26 1010.6
20260906192503 34 189 16.1 27.4 0.00 0.00 0.00 26 1010.8
20260906192001 33 217 9.7 17.7 0.00 0.00 0.00 27 1010.6
20260906191611 33 168 8.0 22.5 0.00 0.00 0.00 29 1010.7
20260906191059 33 117 12.9 27.4 0.00 0.00 0.00 29 1011.0
20260906190557 33 191 14.5 27.4 0.00 0.00 0.00 28 1010.9
20260906190056 33 127 8.0 22.5 0.00 0.00 0.00 28 1011.0
20260906185558 33 173 11.3 22.5 0.00 0.00 0.00 28 1011.1
20260906185053 33 185 9.7 29.0 0.00 0.00 0.00 29 1011.1
20260906184557 33 212 12.9 20.9 0.00 0.00 0.00 30 1011.4
20260906183550 33 187 9.7 20.9 0.00 0.00 0.00 30 1011.4
20260906183049 33 191 11.3 20.9 0.00 0.00 0.00 31 1011.5
20260906182551 33 156 11.3 20.9 0.00 0.00 0.00 32 1011.7
20260906182049 33 153 12.9 22.5 0.00 0.00 0.00 32 1011.7
20260906181558 32 162 14.5 22.5 0.00 0.00 0.00 33 1011.8
20260906181045 32 89 11.3 27.4 0.00 0.00 0.00 34 1011.8
20260906180544 32 193 14.5 29.0 0.00 0.00 0.00 34 1011.9
20260906180042 32 106 11.3 29.0 0.00 0.00 0.00 34 1012.0
20260906175542 31 193 9.7 24.1 0.00 0.00 0.00 36 1012.1
20260906175040 31 160 9.7 20.9 0.00 0.00 0.00 36 1012.1
20260906174540 31 196 11.3 19.3 0.00 0.00 0.00 36 1012.3
20260906173540 31 184 9.7 24.1 0.00 0.00 0.00 36 1012.4
20260906173040 31 135 11.3 24.1 0.00 0.00 0.00 37 1012.5
20260906172537 31 173 9.7 17.7 0.00 0.00 0.00 38 1012.6
20260906172037 31 198 9.7 20.9 0.00 0.00 0.00 41 1012.6
20260906171537 30 228 11.3 20.9 0.00 0.00 0.00 42 1012.6
20260906171036 30 181 8.0 17.7 0.00 0.00 0.00 42 1012.6
20260906170537 30 212 9.7 19.3 0.00 0.00 0.00 42 1012.8
20260906170036 30 191 12.9 24.1 0.00 0.00 0.00 42 1012.8
20260906165535 31 198 14.5 24.1 0.00 0.00 0.00 41 1012.9
20260906165034 30 202 14.5 22.5 0.00 0.00 0.00 42 1012.7
20260906164534 30 211 11.3 24.1 0.00 0.00 0.00 42 1012.7
20260906163532 30 194 11.3 22.5 0.00 0.00 0.00 43 1012.8
20260906163031 30 213 12.9 22.5 0.00 0.00 0.00 43 1012.7
20260906162530 30 229 14.5 22.5 0.00 0.00 0.00 43 1012.6
20260906162029 30 168 11.3 24.1 0.00 0.00 0.00 44 1012.7
20260906161531 30 190 12.9 22.5 0.00 0.00 0.00 44 1012.7
20260906161031 30 216 12.9 19.3 0.00 0.00 0.00 44 1012.6
20260906160527 29 195 9.7 19.3 0.00 0.00 0.00 44 1012.7
20260906160026 29 197 9.7 20.9 0.00 0.00 0.00 45 1012.8
20260906155525 29 191 12.9 20.9 0.00 0.00 0.00 45 1012.7
20260906155024 29 193 9.7 19.3 0.00 0.00 0.00 45 1012.5
20260906154523 29 173 9.7 19.3 0.00 0.00 0.00 46 1012.7
20260906153525 28 216 14.5 24.1 0.00 0.00 0.00 46 1012.6
20260906153021 28 180 12.9 24.1 0.00 0.00 0.00 46 1012.6
20260906152520 28 170 11.3 20.9 0.00 0.00 0.00 46 1012.5
20260906152024 28 191 11.3 22.5 0.00 0.00 0.00 47 1012.5
20260906151517 28 196 11.3 22.5 0.00 0.00 0.00 46 1012.6
20260906151016 28 188 16.1 22.5 0.00 0.00 0.00 46 1012.5
20260906150515 28 159 8.0 17.7 0.00 0.00 0.00 47 1012.4
20260906150016 28 187 4.8 16.1 0.00 0.00 0.00 47 1012.3
20260906145512 28 191 6.4 16.1 0.00 0.00 0.00 48 1012.3
20260906145011 28 198 6.4 17.7 0.00 0.00 0.00 48 1012.3
20260906144511 27 196 8.0 17.7 0.00 0.00 0.00 48 1012.3
20260906143511 27 179 6.4 12.9 0.00 0.00 0.00 49 1012.3
20260906143010 27 132 6.4 12.9 0.00 0.00 0.00 49 1012.4
20260906142510 27 187 4.8 6.4 0.00 0.00 0.00 50 1012.3
20260906142010 27 187 1.6 4.8 0.00 0.00 0.00 51 1012.2
20260906141509 27 187 3.2 4.8 0.00 0.00 0.00 51 1012.3
20260906141013 27 187 1.6 4.8 0.00 0.00 0.00 51 1012.2
20260906140509 26 187 0.0 4.8 0.00 0.00 0.00 52 1012.2
20260906140013 26 187 0.0 4.8 0.00 0.00 0.00 53 1012.1
20260906135508 26 187 0.0 4.8 0.00 0.00 0.00 54 1012.1
20260906135008 25 187 1.6 6.4 0.00 0.00 0.00 55 1012.1
20260906134507 25 187 1.6 6.4 0.00 0.00 0.00 55 1012.1
20260906133507 25 187 3.2 4.8 0.00 0.00 0.00 55 1012.1
20260906133007 25 187 0.0 0.0 0.00 0.00 0.00 56 1012.0
20260906132507 25 187 0.0 0.0 0.00 0.00 0.00 56 1012.0
20260906132006 25 187 0.0 0.0 0.00 0.00 0.00 56 1011.9
20260906131508 25 187 0.0 0.0 0.00 0.00 0.00 56 1011.9
20260906131005 25 187 0.0 0.0 0.00 0.00 0.00 56 1012.0
20260906130505 25 187 0.0 0.0 0.00 0.00 0.00 57 1011.9
20260906130006 24 187 0.0 0.0 0.00 0.00 0.00 57 1011.8
20260906125506 24 187 0.0 0.0 0.00 0.00 0.00 57 1011.8
20260906125004 24 187 0.0 0.0 0.00 0.00 0.00 57 1011.8
20260906124505 24 187 0.0 0.0 0.00 0.00 0.00 57 1011.6
20260906123503 24 187 0.0 0.0 0.00 0.00 0.00 57 1011.4
20260906123007 24 187 0.0 0.0 0.00 0.00 0.00 57 1011.3
20260906122504 24 187 0.0 1.6 0.00 0.00 0.00 57 1011.3
20260906122003 24 187 0.0 1.6 0.00 0.00 0.00 57 1011.3
20260906121503 24 187 0.0 3.2 0.00 0.00 0.00 57 1011.2
20260906121003 24 187 0.0 3.2 0.00 0.00 0.00 57 1011.2
20260906120504 24 187 0.0 3.2 0.00 0.00 0.00 57 1011.1
20260906120004 24 187 0.0 4.8 0.00 0.00 0.00 57 1011.0
20260906115503 24 187 0.0 4.8 0.00 0.00 0.00 57 1011.0
20260906115002 24 187 1.6 4.8 0.00 0.00 0.00 56 1011.0
20260906114505 24 187 3.2 6.4 0.00 0.00 0.00 56 1010.9
20260906113502 25 187 3.2 6.4 0.00 0.00 0.00 56 1010.9
20260906113002 25 187 3.2 6.4 0.00 0.00 0.00 56 1010.9
20260906112501 25 187 1.6 4.8 0.00 0.00 0.00 56 1010.7
20260906112001 25 187 1.6 4.8 0.00 0.00 0.00 56 1010.8
20260906111603 25 187 1.6 4.8 0.00 0.00 0.00 56 1010.6
20260906111059 25 187 1.6 4.8 0.00 0.00 0.00 56 1010.6
20260906110559 25 187 1.6 4.8 0.00 0.00 0.00 55 1010.5
20260906110100 25 187 3.2 6.4 0.00 0.00 0.00 55 1010.4
20260906105558 25 187 3.2 6.4 0.00 0.00 0.00 55 1010.5
20260906105058 25 187 3.2 6.4 0.00 0.00 0.00 55 1010.4
20260906104557 25 187 3.2 6.4 0.00 0.00 0.00 55 1010.4
20260906103559 25 187 3.2 6.4 0.00 0.00 0.00 54 1010.3
20260906103058 25 187 4.8 6.4 0.00 0.00 0.00 54 1010.4
20260906102559 25 187 3.2 6.4 0.00 0.00 0.00 54 1010.4
20260906102101 25 187 3.2 4.8 0.00 0.00 0.00 54 1010.4
20260906101603 25 187 1.6 4.8 0.00 0.00 0.00 54 1010.3
20260906101057 25 187 1.6 4.8 0.00 0.00 0.00 54 1010.5
20260906100557 25 187 1.6 4.8 0.00 0.00 0.00 54 1010.4
20260906100057 25 187 1.6 6.4 0.00 0.00 0.00 54 1010.4
20260906095557 25 187 3.2 6.4 0.00 0.00 0.00 54 1010.4
20260906095057 25 187 1.6 4.8 0.00 0.00 0.00 54 1010.2
20260906094557 25 187 1.6 3.2 0.00 0.00 0.00 54 1010.2
20260906093554 25 187 1.6 4.8 0.00 0.00 0.00 53 1010.2
20260906093054 25 187 0.0 4.8 0.00 0.00 0.00 53 1010.2
20260906092553 25 187 1.6 6.4 0.00 0.00 0.00 53 1010.1
20260906092053 26 187 3.2 6.4 0.00 0.00 0.00 52 1010.1
20260906091553 26 187 3.2 6.4 0.00 0.00 0.00 52 1010.1
20260906091051 26 187 3.2 8.0 0.00 0.00 0.00 52 1010.0
20260906090551 26 188 3.2 8.0 0.00 0.00 0.00 52 1010.1
20260906090050 26 188 3.2 8.0 0.00 0.00 0.00 52 1010.1
20260906085553 26 188 4.8 8.0 0.00 0.00 0.00 52 1010.2
20260906085050 26 188 3.2 6.4 0.00 0.00 0.00 51 1010.3
20260906084550 26 188 3.2 6.4 0.00 0.00 0.00 51 1010.3
20260906083549 26 188 3.2 6.4 0.00 0.00 0.00 51 1010.3
20260906083050 26 188 3.2 6.4 0.00 0.00 0.00 51 1010.2
20260906082549 26 188 1.6 6.4 0.00 0.00 0.00 51 1010.1
20260906082049 26 188 3.2 4.8 0.00 0.00 0.00 52 1010.2
20260906081552 26 188 1.6 4.8 0.00 0.00 0.00 52 1010.2
20260906081048 26 188 0.0 4.8 0.00 0.00 0.00 52 1010.2
20260906080550 26 188 0.0 3.2 0.00 0.00 0.00 51 1010.3
20260906080047 26 188 0.0 3.2 0.00 0.00 0.00 51 1010.3
20260906075546 26 188 1.6 3.2 0.00 0.00 0.00 51 1010.4
20260906075046 26 188 1.6 3.2 0.00 0.00 0.00 51 1010.3
20260906074546 26 188 1.6 4.8 0.00 0.00 0.00 51 1010.4
20260906073546 26 188 3.2 6.4 0.00 0.00 0.00 51 1010.5
20260906073046 26 188 1.6 6.4 0.00 0.00 0.00 50 1010.5
20260906072547 26 188 1.6 4.8 0.00 0.00 0.00 50 1010.6
20260906072042 26 188 1.6 4.8 0.00 0.00 0.00 50 1010.7
20260906071542 26 188 1.6 4.8 0.00 0.00 0.00 50 1010.7
20260906071042 26 188 1.6 4.8 0.00 0.00 0.00 50 1010.9
20260906070541 26 188 1.6 6.4 0.00 0.00 0.00 49 1010.9
20260906070040 26 188 3.2 6.4 0.00 0.00 0.00 49 1010.9
20260906065543 26 189 3.2 6.4 0.00 0.00 0.00 49 1010.9
20260906065040 26 189 3.2 6.4 0.00 0.00 0.00 49 1011.0
20260906064540 26 190 1.6 6.4 0.00 0.00 0.00 49 1011.0
20260906063542 27 190 1.6 6.4 0.00 0.00 0.00 49 1011.1
20260906063037 27 190 3.2 8.0 0.00 0.00 0.00 49 1011.1
20260906062536 27 190 3.2 6.4 0.00 0.00 0.00 48 1011.2
20260906062136 27 190 3.2 6.4 0.00 0.00 0.00 48 1011.1
20260906061536 27 190 1.6 6.4 0.00 0.00 0.00 48 1011.3
20260906061036 27 190 3.2 6.4 0.00 0.00 0.00 48 1011.3
20260906060535 27 190 3.2 4.8 0.00 0.00 0.00 49 1011.3
20260906060044 27 190 3.2 6.4 0.00 0.00 0.00 48 1011.2
20260906055533 27 190 3.2 6.4 0.00 0.00 0.00 48 1011.4
20260906055033 27 190 3.2 6.4 0.00 0.00 0.00 48 1011.4
20260906054533 27 190 3.2 6.4 0.00 0.00 0.00 47 1011.4
20260906053535 27 191 6.4 9.7 0.00 0.00 0.00 47 1011.3
20260906053035 27 172 4.8 9.7 0.00 0.00 0.00 47 1011.3
20260906052536 27 171 4.8 9.7 0.00 0.00 0.00 47 1011.4
20260906052029 27 175 4.8 8.0 0.00 0.00 0.00 47 1011.4
20260906051529 27 187 3.2 8.0 0.00 0.00 0.00 46 1011.3
20260906051028 28 187 3.2 8.0 0.00 0.00 0.00 46 1011.5
20260906050527 28 187 3.2 8.0 0.00 0.00 0.00 46 1011.5
20260906050026 28 185 4.8 9.7 0.00 0.00 0.00 46 1011.5
20260906045528 28 175 4.8 9.7 0.00 0.00 0.00 46 1011.5
20260906045026 28 155 4.8 9.7 0.00 0.00 0.00 46 1011.4
20260906044527 28 177 4.8 9.7 0.00 0.00 0.00 46 1011.4
20260906043525 28 170 3.2 8.0 0.00 0.00 0.00 45 1011.4
20260906043027 28 171 4.8 8.0 0.00 0.00 0.00 45 1011.3
20260906042626 28 171 3.2 8.0 0.00 0.00 0.00 45 1011.3
20260906042025 28 171 3.2 8.0 0.00 0.00 0.00 45 1011.2
20260906041530 28 177 3.2 8.0 0.00 0.00 0.00 45 1011.1
20260906041025 28 179 4.8 8.0 0.00 0.00 0.00 45 1011.2
20260906040524 28 179 4.8 14.5 0.00 0.00 0.00 45 1011.1
20260906040034 28 156 4.8 14.5 0.00 0.00 0.00 44 1011.1
20260906035533 28 207 6.4 11.3 0.00 0.00 0.00 44 1011.2
20260906035024 28 173 4.8 12.9 0.00 0.00 0.00 44 1011.2
20260906034529 29 189 6.4 14.5 0.00 0.00 0.00 44 1011.1
20260906034123 29 191 6.4 14.5 0.00 0.00 0.00 44 1011.1
20260906033523 29 191 8.0 14.5 0.00 0.00 0.00 43 1011.0
20260906033024 29 191 6.4 16.1 0.00 0.00 0.00 43 1010.9
20260906032523 29 196 6.4 16.1 0.00 0.00 0.00 43 1010.9
20260906032026 29 186 8.0 19.3 0.00 0.00 0.00 43 1010.9
20260906031537 29 189 11.3 19.3 0.00 0.00 0.00 43 1010.8
20260906031023 29 193 6.4 16.1 0.00 0.00 0.00 42 1010.8
20260906030522 30 193 9.7 16.1 0.00 0.00 0.00 42 1010.5
20260906030022 30 192 8.0 14.5 0.00 0.00 0.00 42 1010.6
20260906025528 30 187 6.4 16.1 0.00 0.00 0.00 42 1010.5
20260906025024 30 198 8.0 16.1 0.00 0.00 0.00 41 1010.4
20260906024527 30 174 4.8 14.5 0.00 0.00 0.00 41 1010.3
20260906023524 30 198 9.7 17.7 0.00 0.00 0.00 41 1009.9
20260906023023 30 185 11.3 17.7 0.00 0.00 0.00 41 1009.8
20260906022524 30 193 9.7 19.3 0.00 0.00 0.00 40 1009.7
20260906022023 30 190 8.0 20.9 0.00 0.00 0.00 40 1009.5
20260906021523 30 194 12.9 24.1 0.00 0.00 0.00 40 1009.3
20260906021024 30 204 14.5 24.1 0.00 0.00 0.00 40 1009.1
20260906020522 30 197 9.7 24.1 0.00 0.00 0.00 39 1009.1
20260906020022 31 197 14.5 22.5 0.00 0.00 0.00 39 1008.9
20260906015522 31 202 11.3 22.5 0.00 0.00 0.00 38 1008.9
20260906015022 31 198 9.7 20.9 0.00 0.00 0.00 38 1008.9
20260906014525 31 202 11.3 20.9 0.00 0.00 0.00 38 1008.8
20260906013523 31 198 14.5 30.6 0.00 0.00 0.00 37 1008.6
20260906013021 31 165 17.7 30.6 0.00 0.00 0.00 37 1008.6
20260906012520 32 188 19.3 30.6 0.00 0.00 0.00 36 1008.4
20260906012024 32 191 14.5 30.6 0.00 0.00 0.00 35 1008.3
20260906011523 33 183 17.7 29.0 0.00 0.00 0.00 33 1008.3
20260906011020 33 150 16.1 37.0 0.00 0.00 0.00 32 1008.2
20260906010519 35 166 11.3 32.2 0.00 0.00 0.00 27 1008.0
20260906010020 35 174 8.0 17.7 0.00 0.00 0.00 27 1007.7
20260906005518 35 196 6.4 19.3 0.00 0.00 0.00 26 1007.8
20260906005019 35 173 8.0 20.9 0.00 0.00 0.00 26 1007.8
20260906004519 35 162 11.3 20.9 0.00 0.00 0.00 25 1007.7
20260906003519 35 147 6.4 12.9 0.00 0.00 0.00 25 1007.8
20260906003023 35 156 6.4 9.7 0.00 0.00 0.00 24 1007.8
20260906002518 35 169 3.2 14.5 0.00 0.00 0.00 25 1007.8
20260906002018 35 158 6.4 16.1 0.00 0.00 0.00 25 1007.7
20260906001518 35 192 9.7 19.3 0.00 0.00 0.00 25 1007.7
20260906001023 35 160 11.3 19.3 0.00 0.00 0.00 25 1007.6
20260906000518 36 233 11.3 16.1 0.00 0.00 0.00 25 1007.6
20260906000018 36 216 8.0 14.5 0.00 0.00 0.00 25 1007.7
20260905235518 36 208 8.0 16.1 0.00 0.00 0.00 25 1007.7
20260905235024 36 191 8.0 16.1 0.00 0.00 0.00 25 1007.6
20260905234517 35 204 11.3 17.7 0.00 0.00 0.00 25 1007.7
20260905233518 35 209 11.3 19.3 0.00 0.00 0.00 25 1007.7
20260905233018 36 191 11.3 19.3 0.00 0.00 0.00 25 1007.6
20260905232517 35 195 9.7 17.7 0.00 0.00 0.00 25 1007.6
20260905232017 35 197 6.4 17.7 0.00 0.00 0.00 26 1007.5
20260905231522 36 216 11.3 17.7 0.00 0.00 0.00 25 1007.5
20260905231021 35 220 9.7 20.9 0.00 0.00 0.00 26 1007.3
20260905230516 35 203 11.3 20.9 0.00 0.00 0.00 26 1007.5
20260905230016 35 197 12.9 22.5 0.00 0.00 0.00 26 1007.5
20260905225515 35 209 12.9 17.7 0.00 0.00 0.00 26 1007.6
20260905225017 35 204 9.7 17.7 0.00 0.00 0.00 26 1007.7
20260905224519 35 191 11.3 19.3 0.00 0.00 0.00 26 1007.7
20260905224114 35 205 12.9 20.9 0.00 0.00 0.00 27 1007.6
20260905223514 35 215 12.9 20.9 0.00 0.00 0.00 27 1007.7
20260905223015 35 205 11.3 20.9 0.00 0.00 0.00 27 1007.7
20260905222515 35 225 14.5 20.9 0.00 0.00 0.00 27 1007.6
20260905222014 35 214 16.1 22.5 0.00 0.00 0.00 27 1007.7
20260905221514 35 209 14.5 22.5 0.00 0.00 0.00 27 1007.6
20260905221014 35 203 12.9 22.5 0.00 0.00 0.00 27 1007.7
20260905220516 35 224 12.9 20.9 0.00 0.00 0.00 27 1007.6
20260905220014 35 214 12.9 24.1 0.00 0.00 0.00 28 1007.7
20260905215514 35 213 16.1 24.1 0.00 0.00 0.00 27 1007.6
20260905215012 35 205 12.9 20.9 0.00 0.00 0.00 28 1007.7
20260905214512 35 218 12.9 22.5 0.00 0.00 0.00 27 1007.7
20260905213513 36 204 17.7 25.7 0.00 0.00 0.00 27 1007.8
20260905213013 36 211 17.7 25.7 0.00 0.00 0.00 26 1007.8
20260905212512 36 211 9.7 20.9 0.00 0.00 0.00 26 1007.9
20260905212012 36 152 8.0 17.7 0.00 0.00 0.00 24 1008.0
20260905211509 36 72 1.6 17.7 0.00 0.00 0.00 25 1008.1
20260905211010 36 122 6.4 17.7 0.00 0.00 0.00 26 1008.3
20260905210508 36 137 6.4 20.9 0.00 0.00 0.00 25 1008.3
20260905210008 36 78 9.7 20.9 0.00 0.00 0.00 25 1008.3
20260905205509 36 203 4.8 14.5 0.00 0.00 0.00 27 1008.3
20260905205007 35 175 6.4 14.5 0.00 0.00 0.00 27 1008.4
20260905204507 36 198 8.0 12.9 0.00 0.00 0.00 27 1008.3
20260905203504 35 162 3.2 19.3 0.00 0.00 0.00 28 1008.6
20260905203003 35 156 8.0 19.3 0.00 0.00 0.00 29 1008.8
20260905202505 36 162 11.3 19.3 0.00 0.00 0.00 28 1008.9
20260905202003 36 163 8.0 16.1 0.00 0.00 0.00 27 1008.8
20260905201501 36 182 4.8 12.9 0.00 0.00 0.00 27 1009.0
20260905201104 36 21 4.8 9.7 0.00 0.00 0.00 28 1009.0